Probability
0 0 0 0 0 0 0 0 0 0 0 0 2 5 7 8 7 7 6 5 7 9 8 7 7 6 7 9 7 5 4 3 4 5 4 3 2 2 2 2 1 0 0 0
0 0 0 0 0 0 0 0 0 0 1 1 2 4 7 7 6 5 5 5 7 8 8 8 8 8 8 8 6 5 4 3 4 5 4 3 1 1 1 2 2 0 0 0
0 0 0 0 0 0 0 0 0 1 2 2 2 3 4 4 4 4 4 5 6 7 8 7 7 8 8 7 6 5 5 4 4 5 4 3 1 0 1 1 1 0 0 0
0 0 0 0 0 0 0 0 0 1 2 2 1 1 1 3 4 4 4 5 5 6 7 5 5 6 8 9 8 7 7 6 6 5 4 3 2 1 0 0 0 0 0 0
0 0 0 0 0 0 0 0 0 1 2 2 2 1 1 3 4 4 5 5 5 5 5 4 4 6 8 9 10 9 8 8 9 7 5 3 2 1 0 0 0 0 0 0
0 0 0 0 0 0 0 0 0 1 1 2 1 1 1 2 4 5 5 5 5 4 4 4 7 9 11 12 12 11 11 12 11 9 5 3 1 0 0 0 0 0 0 0
0 0 0 0 0 0 0 0 0 0 0 0 0 0 1 1 3 5 6 6 5 4 4 6 9 11 13 15 15 14 14 14 12 9 6 3 1 0 1 1 0 0 0 0
0 0 0 0 0 0 0 0 0 0 0 0 0 1 2 3 4 6 7 7 6 5 4 7 9 11 13 15 17 18 16 14 11 8 6 4 3 2 3 2 1 0 0 0
0 0 0 0 0 0 0 0 0 0 0 0 1 3 5 5 6 7 7 6 6 5 5 7 8 8 9 12 15 18 16 12 9 7 6 6 6 5 5 4 2 1 0 0
0 0 0 0 0 0 0 0 0 0 0 0 2 3 5 6 7 7 6 6 6 7 7 8 7 6 7 10 13 16 14 11 8 7 7 8 7 6 5 4 2 1 0 0
0 0 0 0 0 0 0 0 0 0 0 0 1 1 3 6 8 8 7 6 7 8 9 8 7 6 8 10 12 13 12 10 9 8 9 9 8 6 5 3 1 0 0 0
0 0 0 0 0 0 0 0 0 0 0 0 0 0 2 6 9 9 9 10 10 10 10 10 8 8 10 11 12 11 10 10 8 8 8 9 8 7 5 3 1 1 1 1
0 0 0 0 0 0 0 0 0 0 0 0 0 1 4 8 10 10 11 13 13 13 12 11 11 11 12 12 12 11 10 9 9 8 8 8 7 6 5 3 3 2 2 2
0 0 0 0 0 0 0 0 0 0 0 0 0 1 5 9 11 12 13 14 16 16 15 14 14 14 13 12 13 12 10 10 11 10 8 7 6 4 2 2 3 3 3 2
0 0 0 0 0 0 0 0 0 0 0 0 0 1 5 9 12 14 14 16 19 20 19 17 17 16 14 14 14 13 11 10 11 12 10 7 5 2 1 1 2 2 2 1
0 0 0 0 0 0 0 0 0 0 0 0 1 3 7 10 12 14 15 16 19 22 20 18 17 17 17 16 17 16 13 10 11 12 11 7 4 3 2 2 2 2 2 1
0 0 0 0 0 0 0 0 0 1 1 2 3 6 11 13 13 13 15 15 17 18 15 14 15 15 16 17 19 18 14 11 11 13 12 8 5 4 4 3 3 4 3 2
0 0 0 0 0 0 0 0 2 3 4 5 7 12 17 18 15 13 13 14 15 13 11 12 15 16 15 16 18 18 15 12 12 13 13 10 6 4 3 3 3 4 3 2
0 0 0 0 0 0 0 1 3 5 5 6 11 20 24 23 18 13 12 14 13 12 12 14 18 20 19 18 20 19 16 14 12 13 13 12 9 6 3 1 1 1 1 1
0 0 0 0 0 0 0 2 4 4 3 5 14 26 29 24 19 15 15 16 16 15 16 18 21 23 23 23 23 22 19 16 14 13 13 12 10 7 4 2 1 1 1 1
0 0 0 0 0 0 1 4 5 2 2 6 15 25 27 21 16 18 21 22 22 21 22 23 24 25 24 25 26 24 20 17 16 16 14 10 7 5 4 4 4 4 3 3
0 0 0 0 0 0 2 5 4 2 3 9 15 19 20 18 17 20 25 26 25 25 26 27 28 26 24 23 25 25 20 16 16 15 11 7 4 4 5 6 6 6 5 4
1 0 0 1 2 4 4 3 3 3 6 11 14 15 16 19 20 22 26 27 25 24 26 28 27 25 22 22 23 23 19 14 13 12 9 6 5 6 7 8 9 8 6 4
2 1 2 4 9 12 10 6 5 7 10 14 15 15 17 20 21 23 26 26 23 21 22 25 23 21 19 20 20 19 16 12 10 10 8 7 6 8 9 9 10 9 7 4
2 3 6 9 12 16 15 11 8 10 14 18 20 20 22 22 23 24 25 25 23 20 20 22 20 18 17 18 17 16 14 11 9 8 8 8 9 9 8 7 7 6 4 3
2 4 9 11 12 15 16 12 10 11 16 21 24 26 25 25 25 24 24 24 24 21 20 20 20 18 17 16 16 15 13 11 9 7 7 10 11 10 8 6 3 2 1 1
Wind_Speed
5 6 2 4 5 5 5 4 2 1 1 4 3 2 2 4 5 5 4 4 4 4 2 2 3 4 4 3 3 3 3 2 2 2 2 1 1 1 1 1 2 2 3 3
6 1 3 3 3 4 4 4 2 2 2 4 3 1 1 3 5 6 6 6 5 4 3 3 4 4 4 4 3 3 3 3 3 2 2 2 1 1 1 1 1 2 2 3
3 4 1 4 4 4 2 5 5 4 3 5 4 4 1 1 2 3 4 5 5 6 6 4 4 4 4 4 4 4 3 3 3 2 2 1 1 1 1 0 1 1 2 2
1 2 2 3 3 5 2 3 6 6 5 1 2 1 5 2 3 4 4 5 5 5 5 5 4 4 5 4 4 3 3 2 2 2 2 2 2 2 2 1 1 1 1 1
2 1 2 2 3 5 3 4 6 5 5 3 3 2 7 1 4 6 6 6 6 5 6 6 5 5 4 4 3 3 2 2 2 2 2 2 1 1 1 1 1 1 1 1
3 2 2 3 1 4 7 8 8 6 6 2 1 2 6 5 7 5 5 6 6 6 6 5 4 4 3 3 3 3 3 2 2 3 3 3 2 2 1 1 1 1 1 1
3 3 2 2 4 4 6 8 5 5 4 4 2 2 9 7 6 6 7 7 6 6 6 5 5 5 4 4 4 3 3 2 2 3 2 3 3 2 2 2 2 1 1 1
2 4 3 1 5 6 4 8 9 6 5 4 2 4 8 5 4 3 4 5 5 6 6 6 6 6 5 5 5 4 3 3 2 2 2 2 2 1 1 1 1 2 2 2
5 4 4 1 2 9 6 3 6 8 3 1 4 6 7 1 0 2 4 5 6 6 6 6 5 6 6 5 5 5 4 3 2 2 2 2 2 2 2 1 1 1 1 1
7 2 3 2 5 6 5 9 6 7 6 2 3 4 5 4 4 4 5 6 6 5 5 5 5 5 5 4 4 4 4 3 2 2 2 2 2 2 2 1 1 0 1 1
4 4 3 2 2 4 4 5 6 5 5 7 3 8 7 9 8 8 8 7 7 7 6 5 4 4 4 4 3 3 3 3 2 2 2 2 1 1 1 1 1 0 0 1
3 6 1 4 3 1 3 6 8 6 4 4 4 9 5 6 7 8 7 6 6 6 5 5 5 5 4 4 3 3 3 3 2 2 2 2 1 2 2 1 1 1 1 1
5 7 3 5 5 4 3 3 4 7 6 5 5 8 4 1 3 5 6 6 5 5 5 4 4 5 5 4 3 3 2 2 2 2 2 2 1 1 1 1 1 1 1 1
7 5 7 8 7 3 1 2 4 6 5 5 7 7 5 3 5 5 6 6 6 6 5 4 4 4 4 4 4 4 3 2 3 3 3 2 1 1 1 1 1 1 1 1
5 4 2 3 3 3 3 3 5 5 7 8 8 8 9 8 8 7 6 6 6 6 5 5 5 4 4 4 4 4 3 3 3 3 2 2 1 1 1 2 2 2 2 2
4 4 2 1 1 2 1 3 5 4 4 4 2 7 7 3 3 4 6 8 8 7 7 6 5 6 6 5 5 4 4 4 4 3 2 2 2 2 2 2 2 2 2 2
2 4 4 1 3 2 3 4 5 4 3 6 7 8 2 2 5 8 8 8 8 8 7 7 7 6 6 5 5 5 4 3 4 3 2 2 2 2 2 2 2 2 2 2
6 5 4 2 2 4 8 2 3 4 3 4 4 4 4 5 4 3 5 7 7 6 6 6 6 5 5 4 5 4 4 4 3 3 2 2 2 2 2 3 2 2 2 2
5 8 5 4 3 4 6 2 3 3 3 2 3 2 1 3 4 2 1 4 6 6 6 5 5 5 5 5 5 5 4 4 3 3 2 2 3 3 3 2 2 2 2 2
4 5 6 5 4 6 8 4 1 3 3 3 3 4 4 5 2 3 2 3 4 4 5 5 5 5 5 5 5 6 5 4 3 3 2 2 3 3 3 2 2 2 2 2
3 4 4 4 4 7 6 4 1 4 7 3 4 6 6 4 5 4 3 4 5 6 5 6 7 6 4 4 5 5 4 3 3 3 3 3 2 3 3 3 2 2 3 3
4 3 3 4 3 7 3 1 4 6 3 2 3 4 4 3 2 3 5 6 6 6 6 6 6 5 4 5 6 5 3 2 3 4 4 3 2 2 3 3 3 3 3 3
3 5 5 6 7 5 2 3 3 2 2 2 3 3 5 4 3 2 4 5 6 6 6 5 6 5 3 3 4 5 3 3 4 4 4 3 3 3 3 3 3 3 2 2
2 1 2 2 5 4 4 4 3 2 2 1 3 4 5 5 4 4 5 5 5 5 6 5 7 6 4 2 2 3 4 4 5 4 3 3 3 3 3 2 2 2 2 1
3 1 1 3 5 5 5 3 3 2 1 1 1 1 3 4 3 4 5 5 5 4 4 5 6 6 5 4 3 3 4 5 5 4 3 3 3 3 3 3 2 2 1 1
4 4 4 6 6 4 6 5 2 1 1 2 2 1 1 3 4 5 6 5 5 5 5 5 5 5 5 4 4 3 3 4 5 4 3 2 2 3 3 3 3 6 4 3
Wind_Direction
29 70 145 205 190 167 146 137 149 229 138 116 139 158 165 164 166 177 183 183 183 205 192 163 164 161 154 154 156 165 167 168 150 140 145 158 208 212 229 229 218 209 205 194
40 340 230 166 147 131 135 127 130 55 60 103 117 75 149 175 197 196 191 192 190 192 184 172 158 160 167 167 170 172 184 182 179 166 156 162 173 196 215 247 236 222 210 203
158 235 156 128 126 123 144 159 166 148 68 51 79 4 339 261 226 214 195 193 191 189 194 187 175 172 165 176 185 189 192 190 188 167 123 97 75 53 42 306 267 255 229 220
210 254 142 123 155 143 203 190 147 131 108 44 79 264 288 274 260 233 216 201 198 190 184 181 176 177 182 191 179 175 176 179 172 153 154 159 171 193 221 227 241 281 261 240
241 188 131 156 201 157 163 100 107 104 106 71 36 122 284 305 258 248 227 210 200 184 178 182 183 183 181 174 164 164 153 165 166 158 172 178 198 208 211 217 233 292 294 261
244 263 199 188 96 121 119 76 60 53 68 60 266 156 270 235 227 235 219 209 196 181 175 177 171 155 159 158 156 160 169 191 183 170 177 186 199 199 199 230 232 260 278 278
339 325 297 145 95 51 93 91 50 14 17 257 268 196 250 249 233 216 207 201 189 173 168 167 166 165 168 168 168 166 174 195 183 172 182 183 186 188 204 223 224 236 262 267
149 288 275 189 161 159 151 133 150 175 204 266 317 240 258 272 257 211 187 180 168 168 172 178 179 177 179 176 170 167 177 192 182 180 193 179 172 184 224 227 227 226 241 257
165 244 292 286 148 132 129 134 148 123 126 76 286 288 302 333 318 158 163 168 178 180 178 183 181 179 181 178 177 179 179 187 188 185 177 168 170 189 231 236 234 252 262 269
153 201 293 305 76 39 126 139 104 112 134 203 289 274 248 235 218 198 189 194 191 178 177 181 180 180 180 178 174 168 168 181 184 174 179 174 170 188 216 197 209 243 295 349
129 141 310 14 142 166 114 93 99 103 139 148 211 264 229 207 200 199 202 194 184 182 184 185 176 163 154 152 158 165 166 167 169 173 171 156 153 160 153 153 163 146 24 37
124 119 212 273 292 231 138 150 143 142 181 161 167 261 274 212 201 195 198 190 180 177 174 169 161 151 150 157 160 165 164 168 172 161 146 149 120 113 124 122 103 85 56 36
131 111 82 351 346 9 75 113 123 117 113 146 165 260 315 172 184 191 187 183 174 167 161 154 151 155 158 158 156 155 157 161 150 138 136 123 117 122 126 119 101 87 70 47
114 110 155 186 209 204 183 150 144 123 138 183 215 241 283 252 211 202 191 184 172 167 163 159 161 158 155 154 151 148 159 158 137 125 125 130 148 154 146 124 100 95 93 74
99 121 181 213 219 188 187 187 176 177 180 181 220 218 238 229 214 201 185 172 164 168 170 173 170 161 156 152 154 155 152 139 136 132 139 157 147 131 117 103 97 91 85 82
73 117 113 311 283 198 204 219 192 200 188 205 214 246 252 239 179 173 177 174 178 183 182 174 167 163 163 165 167 161 155 154 146 147 163 155 140 133 119 103 96 93 85 75
92 113 106 239 305 57 267 228 190 187 194 176 200 231 225 188 193 191 185 183 186 186 179 173 175 177 173 170 167 167 169 154 144 154 154 145 149 142 130 109 97 96 92 84
139 119 124 130 92 206 240 249 183 178 214 209 222 235 200 209 213 178 167 175 183 180 176 176 174 170 161 156 150 148 144 147 148 151 153 160 155 144 126 114 109 98 90 85
153 137 124 127 167 259 288 266 171 175 248 225 201 213 87 87 71 28 161 169 179 175 167 165 164 158 148 149 146 137 139 143 145 154 162 159 151 139 130 121 119 120 100 74
71 101 118 130 154 218 243 273 267 137 259 254 179 170 151 109 122 244 219 154 149 137 136 137 130 124 136 146 143 138 144 145 157 165 155 140 138 141 142 136 126 109 107 104
58 61 120 149 188 248 256 288 64 158 241 246 180 172 162 179 200 197 155 141 134 128 128 129 126 133 141 139 137 140 146 165 169 134 115 113 122 136 136 126 115 107 103 94
159 144 167 146 171 245 276 88 167 217 259 208 184 175 159 159 141 136 136 136 131 125 123 124 125 125 126 134 139 142 157 159 125 120 116 115 113 120 118 115 108 102 106 99
184 187 185 186 208 243 267 234 252 224 223 229 182 169 146 142 152 144 138 137 135 131 129 125 126 115 107 125 139 146 155 128 122 117 118 116 105 93 107 117 116 107 102 105
287 153 149 262 274 282 289 284 285 261 242 243 178 165 159 159 163 155 145 140 138 136 136 129 125 124 127 129 122 130 126 125 120 120 120 117 112 98 86 87 98 106 111 117
239 198 158 264 280 308 306 301 302 324 26 85 88 152 172 154 153 157 149 147 147 136 132 132 136 137 140 133 116 113 122 122 116 117 119 115 114 118 105 83 65 81 70 134
213 191 193 231 236 232 270 291 298 286 239 167 143 112 165 159 163 156 150 147 143 137 132 132 130 128 130 130 124 121 126 128 128 127 131 130 128 123 121 113 77 50 54 53